| time (UTC) | temp C | wind direction | speed KPH | gust KPH | rain 1hr cm | rain 24hr cm | rain mn cm | humidity % | barometer mb |
| 20260510104231 | 19 | 80 | 0.0 | 3.2 | 0.00 | 6.48 | 0.00 | 98 | 1012.1 |
| 20260510103728 | 19 | 80 | 0.0 | 3.2 | 0.00 | 6.48 | 0.00 | 98 | 1012.0 |
| 20260510103230 | 18 | 80 | 0.0 | 3.2 | 0.00 | 6.48 | 0.00 | 98 | 1011.9 |
| 20260510103225 | 18 | 80 | 0.0 | 3.2 | 0.00 | 6.48 | 0.00 | 98 | 1012.0 |
| 20260510102220 | 18 | 81 | 0.0 | 1.6 | 0.00 | 6.48 | 0.00 | 98 | 1011.8 |
| 20260510101719 | 18 | 81 | 0.0 | 1.6 | 0.00 | 6.48 | 0.00 | 98 | 1011.9 |
| 20260510101216 | 18 | 78 | 0.0 | 3.2 | 0.00 | 6.48 | 0.00 | 98 | 1011.8 |
| 20260510100659 | 18 | 78 | 0.0 | 3.2 | 0.00 | 6.48 | 0.00 | 98 | 1011.7 |
| 20260510100157 | 18 | 78 | 0.0 | 0.0 | 0.00 | 6.48 | 0.00 | 98 | 1011.7 |
| 20260510095637 | 18 | 78 | 0.0 | 1.6 | 0.00 | 6.48 | 0.00 | 98 | 1011.7 |
| 20260510095135 | 18 | 78 | 0.0 | 3.2 | 0.00 | 6.48 | 0.00 | 98 | 1011.7 |
| 20260510094634 | 19 | 60 | 0.0 | 3.2 | 0.00 | 6.48 | 0.00 | 98 | 1011.5 |
| 20260510094132 | 19 | 60 | 0.0 | 1.6 | 0.00 | 6.48 | 0.00 | 98 | 1011.5 |
| 20260510093629 | 19 | 60 | 0.0 | 0.0 | 0.00 | 6.48 | 0.00 | 98 | 1011.4 |
| 20260510093331 | 19 | 60 | 0.0 | 0.0 | 0.00 | 6.48 | 0.00 | 98 | 1011.5 |
| 20260510092600 | 19 | 60 | 0.0 | 1.6 | 0.00 | 6.48 | 0.00 | 98 | 1011.4 |
| 20260510092052 | 19 | 60 | 0.0 | 1.6 | 0.00 | 6.48 | 0.00 | 98 | 1011.4 |
| 20260510091820 | 19 | 60 | 0.0 | 0.0 | 0.00 | 6.48 | 0.00 | 97 | 1011.4 |
| 20260510091020 | 19 | 60 | 0.0 | 0.0 | 0.00 | 6.48 | 0.00 | 97 | 1011.4 |
| 20260510090513 | 19 | 60 | 0.0 | 0.0 | 0.00 | 6.48 | 0.00 | 97 | 1011.4 |
| 20260510090006 | 19 | 60 | 0.0 | 0.0 | 0.00 | 6.48 | 0.00 | 97 | 1011.4 |
| 20260510085456 | 19 | 60 | 0.0 | 1.6 | 0.00 | 6.48 | 0.00 | 97 | 1011.5 |
| 20260510084942 | 19 | 60 | 0.0 | 1.6 | 0.00 | 6.48 | 0.00 | 97 | 1011.3 |
| 20260510084438 | 19 | 60 | 0.0 | 1.6 | 0.00 | 6.48 | 0.00 | 97 | 1011.4 |
| 20260510083938 | 19 | 60 | 0.0 | 1.6 | 0.00 | 6.48 | 0.00 | 97 | 1011.5 |
| 20260510083708 | 19 | 60 | 0.0 | 1.6 | 0.00 | 6.48 | 0.00 | 97 | 1011.5 |
| 20260510082934 | 19 | 60 | 0.0 | 1.6 | 0.00 | 6.48 | 0.00 | 97 | 1011.4 |
| 20260510082706 | 19 | 60 | 0.0 | 1.6 | 0.00 | 6.48 | 0.00 | 97 | 1011.3 |
| 20260510081856 | 19 | 60 | 0.0 | 0.0 | 0.00 | 6.48 | 0.00 | 98 | 1011.4 |
| 20260510081358 | 19 | 60 | 0.0 | 1.6 | 0.00 | 6.48 | 0.00 | 98 | 1011.3 |
| 20260510081353 | 19 | 60 | 0.0 | 1.6 | 0.00 | 6.48 | 0.00 | 98 | 1011.3 |
| 20260510080318 | 19 | 60 | 0.0 | 1.6 | 0.00 | 6.48 | 0.00 | 98 | 1011.3 |
| 20260510080025 | 19 | 60 | 0.0 | 1.6 | 0.00 | 6.48 | 0.00 | 98 | 1011.2 |
| 20260510075249 | 19 | 60 | 0.0 | 1.6 | 0.00 | 6.48 | 0.00 | 98 | 1011.3 |
| 20260510074739 | 19 | 60 | 0.0 | 3.2 | 0.00 | 6.48 | 0.00 | 98 | 1011.4 |
| 20260510074236 | 19 | 60 | 0.0 | 3.2 | 0.00 | 6.48 | 0.00 | 98 | 1011.4 |
| 20260510073716 | 19 | 59 | 0.0 | 3.2 | 0.00 | 6.48 | 0.00 | 98 | 1011.3 |
| 20260510073443 | 19 | 59 | 0.0 | 3.2 | 0.00 | 6.48 | 0.00 | 98 | 1011.3 |
| 20260510072707 | 19 | 59 | 0.0 | 3.2 | 0.00 | 6.48 | 0.00 | 98 | 1011.3 |
| 20260510072201 | 19 | 50 | 0.0 | 0.0 | 0.00 | 6.48 | 0.00 | 98 | 1011.3 |
| 20260510071655 | 19 | 50 | 0.0 | 0.0 | 0.00 | 6.48 | 0.00 | 98 | 1011.2 |
| 20260510071147 | 19 | 50 | 0.0 | 0.0 | 0.00 | 6.48 | 0.00 | 98 | 1011.3 |
| 20260510070643 | 19 | 50 | 0.0 | 0.0 | 0.00 | 6.48 | 0.00 | 98 | 1011.3 |
| 20260510070139 | 19 | 50 | 0.0 | 0.0 | 0.00 | 6.48 | 0.00 | 98 | 1011.2 |
| 20260510065623 | 19 | 50 | 0.0 | 0.0 | 0.00 | 6.48 | 0.00 | 98 | 1011.2 |
| 20260510065121 | 19 | 50 | 0.0 | 0.0 | 0.00 | 6.48 | 0.00 | 98 | 1011.2 |
| 20260510064600 | 19 | 50 | 0.0 | 0.0 | 0.00 | 6.48 | 0.00 | 98 | 1011.2 |
| 20260510064332 | 19 | 50 | 0.0 | 0.0 | 0.00 | 6.48 | 0.00 | 98 | 1011.2 |
| 20260510063542 | 19 | 50 | 0.0 | 0.0 | 0.00 | 6.48 | 0.00 | 98 | 1011.3 |
| 20260510063044 | 19 | 50 | 0.0 | 0.0 | 0.00 | 6.48 | 0.00 | 98 | 1011.3 |
| 20260510062543 | 19 | 50 | 0.0 | 0.0 | 0.00 | 6.48 | 0.00 | 98 | 1011.3 |
| 20260510062034 | 19 | 50 | 0.0 | 0.0 | 0.00 | 6.48 | 0.00 | 98 | 1011.2 |
| 20260510061509 | 19 | 50 | 0.0 | 0.0 | 0.00 | 6.48 | 0.00 | 98 | 1011.1 |
| 20260510061241 | 19 | 50 | 0.0 | 0.0 | 0.00 | 6.48 | 0.00 | 98 | 1011.2 |
| 20260510060444 | 19 | 50 | 0.0 | 0.0 | 0.00 | 6.48 | 0.00 | 98 | 1011.2 |
| 20260510055941 | 19 | 50 | 0.0 | 0.0 | 0.00 | 6.48 | 0.00 | 98 | 1011.3 |
| 20260510055708 | 19 | 330 | 0.0 | 0.0 | 0.00 | 6.48 | 0.00 | 98 | 1011.2 |
| 20260510054934 | 19 | 330 | 0.0 | 0.0 | 0.00 | 6.48 | 0.00 | 98 | 1011.2 |
| 20260510054431 | 19 | 330 | 0.0 | 0.0 | 0.00 | 6.48 | 0.00 | 98 | 1011.2 |
| 20260510053854 | 19 | 330 | 0.0 | 0.0 | 0.00 | 6.48 | 0.00 | 98 | 1011.2 |
| 20260510053311 | 19 | 330 | 0.0 | 0.0 | 0.00 | 6.48 | 0.00 | 98 | 1011.2 |
| 20260510052723 | 19 | 330 | 0.0 | 0.0 | 0.00 | 6.48 | 0.00 | 98 | 1011.2 |
| 20260510052139 | 19 | 330 | 0.0 | 0.0 | 0.00 | 6.48 | 0.00 | 98 | 1011.3 |
| 20260510051637 | 19 | 330 | 0.0 | 0.0 | 0.00 | 6.48 | 0.00 | 98 | 1011.2 |
| 20260510051122 | 19 | 330 | 0.0 | 0.0 | 0.00 | 6.48 | 0.00 | 98 | 1011.2 |
| 20260510050624 | 19 | 329 | 0.0 | 0.0 | 0.00 | 6.48 | 0.00 | 97 | 1011.3 |
| 20260510050354 | 19 | 329 | 0.0 | 0.0 | 0.00 | 6.48 | 0.00 | 97 | 1011.5 |
| 20260510045842 | 19 | 329 | 0.0 | 0.0 | 0.00 | 6.48 | 6.48 | 97 | 1011.6 |
| 20260510045103 | 19 | 329 | 0.0 | 0.0 | 0.00 | 6.48 | 6.48 | 97 | 1011.6 |
| 20260510044547 | 19 | 329 | 0.0 | 0.0 | 0.00 | 6.48 | 6.48 | 97 | 1011.6 |
| 20260510044038 | 19 | 329 | 0.0 | 0.0 | 0.00 | 6.48 | 6.48 | 97 | 1011.6 |
| 20260510043523 | 19 | 329 | 0.0 | 0.0 | 0.00 | 6.50 | 6.48 | 97 | 1011.7 |
| 20260510043256 | 19 | 329 | 0.0 | 0.0 | 0.00 | 6.50 | 6.48 | 97 | 1011.7 |
| 20260510042513 | 19 | 329 | 0.0 | 0.0 | 0.00 | 6.50 | 6.48 | 97 | 1011.8 |
| 20260510042006 | 19 | 329 | 0.0 | 0.0 | 0.00 | 6.53 | 6.48 | 97 | 1011.7 |
| 20260510041442 | 19 | 329 | 0.0 | 0.0 | 0.00 | 6.53 | 6.48 | 97 | 1011.6 |
| 20260510040931 | 19 | 329 | 0.0 | 0.0 | 0.00 | 6.53 | 6.48 | 97 | 1011.5 |
| 20260510040655 | 19 | 329 | 0.0 | 0.0 | 0.00 | 6.53 | 6.48 | 98 | 1011.3 |
| 20260510040152 | 19 | 329 | 0.0 | 0.0 | 0.00 | 6.55 | 6.48 | 98 | 1011.2 |
| 20260510035411 | 19 | 329 | 0.0 | 0.0 | 0.00 | 6.68 | 6.48 | 98 | 1011.1 |
| 20260510034910 | 19 | 329 | 0.0 | 0.0 | 0.00 | 6.76 | 6.48 | 98 | 1010.8 |
| 20260510034343 | 19 | 329 | 0.0 | 0.0 | 0.00 | 6.78 | 6.48 | 98 | 1010.8 |
| 20260510033843 | 19 | 329 | 0.0 | 0.0 | 0.00 | 6.78 | 6.48 | 98 | 1010.7 |
| 20260510033339 | 19 | 329 | 0.0 | 0.0 | 0.00 | 6.81 | 6.48 | 97 | 1010.7 |
| 20260510032838 | 19 | 329 | 0.0 | 0.0 | 0.00 | 6.86 | 6.48 | 97 | 1010.7 |
| 20260510032328 | 19 | 329 | 0.0 | 0.0 | 0.00 | 6.86 | 6.48 | 97 | 1010.7 |
| 20260510031801 | 19 | 329 | 0.0 | 0.0 | 0.03 | 6.86 | 6.48 | 97 | 1010.6 |
| 20260510031513 | 19 | 329 | 0.0 | 0.0 | 0.03 | 6.86 | 6.48 | 97 | 1010.5 |
| 20260510030730 | 19 | 329 | 0.0 | 0.0 | 0.03 | 6.86 | 6.48 | 97 | 1010.6 |
| 20260510030500 | 19 | 329 | 0.0 | 0.0 | 0.03 | 6.86 | 6.48 | 97 | 1010.7 |
| 20260510025717 | 19 | 329 | 0.0 | 0.0 | 0.03 | 6.86 | 6.48 | 97 | 1010.9 |
| 20260510025219 | 19 | 329 | 0.0 | 1.6 | 0.03 | 6.86 | 6.48 | 97 | 1010.8 |
| 20260510024702 | 19 | 329 | 0.0 | 1.6 | 0.03 | 6.86 | 6.48 | 97 | 1010.7 |
| 20260510024433 | 19 | 329 | 0.0 | 1.6 | 0.03 | 6.86 | 6.48 | 97 | 1010.8 |
| 20260510023653 | 19 | 329 | 0.0 | 1.6 | 0.03 | 6.86 | 6.48 | 97 | 1011.0 |
| 20260510023153 | 19 | 329 | 1.6 | 3.2 | 0.03 | 6.86 | 6.48 | 97 | 1011.2 |
| 20260510022655 | 19 | 329 | 1.6 | 3.2 | 0.03 | 6.86 | 6.48 | 97 | 1011.1 |
| 20260510022150 | 19 | 329 | 0.0 | 1.6 | 0.03 | 6.86 | 6.48 | 97 | 1011.4 |
| 20260510021644 | 19 | 329 | 0.0 | 1.6 | 0.00 | 6.83 | 6.45 | 97 | 1011.5 |
| 20260510021140 | 19 | 329 | 0.0 | 3.2 | 0.00 | 6.83 | 6.45 | 97 | 1011.5 |
| 20260510021128 | 19 | 329 | 1.6 | 3.2 | 0.00 | 6.83 | 6.45 | 97 | 1011.2 |
| 20260510020126 | 19 | 9 | 1.6 | 3.2 | 0.05 | 6.83 | 6.45 | 97 | 1011.2 |
| 20260510015630 | 19 | 41 | 0.0 | 3.2 | 0.05 | 6.83 | 6.45 | 97 | 1010.6 |
| 20260510015626 | 19 | 41 | 0.0 | 3.2 | 0.05 | 6.83 | 6.45 | 97 | 1010.9 |
| 20260510014616 | 19 | 59 | 1.6 | 4.8 | 0.05 | 6.83 | 6.45 | 97 | 1010.7 |
| 20260510014112 | 19 | 325 | 1.6 | 4.8 | 0.05 | 6.83 | 6.45 | 97 | 1010.8 |
| 20260510013608 | 19 | 35 | 1.6 | 3.2 | 0.05 | 6.83 | 6.45 | 97 | 1010.6 |
| 20260510013340 | 19 | 35 | 0.0 | 3.2 | 0.05 | 6.83 | 6.45 | 97 | 1010.5 |
| 20260510012612 | 19 | 28 | 0.0 | 1.6 | 0.05 | 6.83 | 6.45 | 97 | 1010.8 |
| 20260510012047 | 18 | 28 | 0.0 | 1.6 | 0.05 | 6.83 | 6.45 | 97 | 1010.9 |
| 20260510011547 | 18 | 28 | 0.0 | 3.2 | 0.08 | 6.83 | 6.45 | 97 | 1011.0 |
| 20260510011045 | 18 | 28 | 0.0 | 3.2 | 0.08 | 6.83 | 6.45 | 97 | 1010.9 |
| 20260510010545 | 18 | 28 | 1.6 | 3.2 | 0.08 | 6.83 | 6.45 | 97 | 1010.9 |
| 20260510010310 | 18 | 28 | 1.6 | 3.2 | 0.03 | 6.78 | 6.40 | 97 | 1011.2 |
| 20260510005534 | 19 | 28 | 0.0 | 3.2 | 0.03 | 6.78 | 6.40 | 97 | 1011.4 |
| 20260510005306 | 18 | 28 | 0.0 | 1.6 | 0.03 | 6.78 | 6.40 | 97 | 1011.6 |
| 20260510004532 | 19 | 28 | 0.0 | 1.6 | 0.03 | 6.78 | 6.40 | 97 | 1011.6 |
| 20260510004031 | 19 | 28 | 0.0 | 1.6 | 0.03 | 6.78 | 6.40 | 97 | 1011.4 |
| 20260510003532 | 19 | 28 | 0.0 | 1.6 | 0.03 | 6.78 | 6.40 | 97 | 1011.3 |
| 20260510003009 | 19 | 28 | 0.0 | 1.6 | 0.05 | 6.78 | 6.40 | 97 | 1011.2 |
| 20260510002453 | 19 | 28 | 0.0 | 1.6 | 0.05 | 6.78 | 6.40 | 97 | 1011.1 |
| 20260510001943 | 19 | 28 | 0.0 | 0.0 | 0.03 | 6.76 | 6.40 | 97 | 1011.2 |
| 20260510001437 | 19 | 28 | 0.0 | 0.0 | 0.03 | 6.76 | 6.38 | 97 | 1011.0 |
| 20260510000937 | 19 | 28 | 0.0 | 0.0 | 0.03 | 6.76 | 6.38 | 97 | 1010.8 |
| 20260510000438 | 19 | 28 | 0.0 | 0.0 | 0.03 | 6.76 | 6.38 | 97 | 1010.6 |
| 20260510000205 | 19 | 28 | 0.0 | 0.0 | 0.03 | 6.76 | 6.38 | 97 | 1010.5 |
| 20260509235420 | 19 | 28 | 0.0 | 0.0 | 0.03 | 6.76 | 6.38 | 97 | 1010.2 |
| 20260509235149 | 18 | 28 | 0.0 | 1.6 | 0.03 | 6.76 | 6.38 | 97 | 1009.9 |
| 20260509234420 | 18 | 28 | 0.0 | 1.6 | 0.03 | 6.76 | 6.38 | 97 | 1009.8 |
| 20260509234145 | 18 | 28 | 0.0 | 1.6 | 0.03 | 6.76 | 6.38 | 97 | 1009.8 |
| 20260509233637 | 18 | 28 | 0.0 | 1.6 | 0.00 | 6.73 | 6.35 | 97 | 1009.8 |
| 20260509232851 | 18 | 28 | 0.0 | 1.6 | 0.03 | 6.73 | 6.35 | 97 | 1009.8 |
| 20260509232351 | 18 | 28 | 0.0 | 4.8 | 0.05 | 6.73 | 6.35 | 97 | 1009.5 |
| 20260509231847 | 18 | 28 | 1.6 | 4.8 | 0.08 | 6.73 | 6.35 | 97 | 1009.5 |
| 20260509231617 | 18 | 340 | 0.0 | 4.8 | 0.10 | 6.73 | 6.35 | 97 | 1009.3 |
| 20260509230845 | 18 | 67 | 0.0 | 4.8 | 0.13 | 6.73 | 6.35 | 97 | 1009.1 |
| 20260509230340 | 18 | 304 | 0.0 | 3.2 | 0.18 | 6.73 | 6.35 | 97 | 1009.0 |
| 20260509225837 | 18 | 80 | 1.6 | 4.8 | 0.18 | 6.76 | 6.35 | 97 | 1009.1 |
| 20260509225332 | 18 | 209 | 1.6 | 6.4 | 0.23 | 6.76 | 6.35 | 97 | 1009.4 |
| 20260509224832 | 19 | 63 | 0.0 | 6.4 | 0.25 | 6.76 | 6.35 | 97 | 1009.7 |
| 20260509224334 | 19 | 355 | 0.0 | 6.4 | 0.28 | 6.78 | 6.35 | 97 | 1009.8 |
| 20260509223833 | 18 | 355 | 0.0 | 6.4 | 0.33 | 6.83 | 6.35 | 97 | 1009.7 |
| 20260509223332 | 18 | 311 | 0.0 | 1.6 | 0.38 | 6.91 | 6.35 | 97 | 1009.9 |
| 20260509222833 | 18 | 29 | 1.6 | 3.2 | 0.38 | 6.91 | 6.32 | 97 | 1009.9 |
| 20260509222600 | 18 | 29 | 1.6 | 3.2 | 0.38 | 6.88 | 6.30 | 97 | 1009.7 |
| 20260509222101 | 18 | 29 | 0.0 | 3.2 | 0.38 | 6.86 | 6.27 | 97 | 1010.0 |
| 20260509221325 | 18 | 29 | 0.0 | 0.0 | 0.38 | 6.86 | 6.25 | 97 | 1010.0 |
| 20260509221040 | 18 | 29 | 0.0 | 0.0 | 0.38 | 6.83 | 6.22 | 97 | 1010.1 |
| 20260509220536 | 18 | 29 | 0.0 | 0.0 | 0.36 | 6.81 | 6.17 | 97 | 1010.3 |
| 20260509215757 | 18 | 29 | 0.0 | 0.0 | 0.38 | 6.83 | 6.17 | 97 | 1010.6 |
| 20260509215254 | 18 | 29 | 0.0 | 0.0 | 0.36 | 6.78 | 6.12 | 97 | 1010.6 |
| 20260509214755 | 18 | 29 | 0.0 | 1.6 | 0.36 | 6.76 | 6.10 | 97 | 1010.3 |
| 20260509214239 | 18 | 29 | 0.0 | 1.6 | 0.36 | 6.73 | 6.05 | 97 | 1010.1 |
| 20260509213741 | 18 | 29 | 0.0 | 1.6 | 0.38 | 6.71 | 6.02 | 97 | 1010.1 |
| 20260509213241 | 18 | 29 | 0.0 | 1.6 | 0.36 | 6.68 | 5.97 | 97 | 1009.8 |
| 20260509212741 | 18 | 29 | 0.0 | 4.8 | 0.46 | 6.68 | 5.94 | 97 | 1009.9 |
| 20260509212237 | 18 | 29 | 1.6 | 4.8 | 0.58 | 6.65 | 5.92 | 97 | 1010.0 |
| 20260509211736 | 18 | 9 | 0.0 | 3.2 | 0.69 | 6.63 | 5.89 | 97 | 1010.2 |
| 20260509211229 | 18 | 32 | 0.0 | 3.2 | 0.79 | 6.63 | 5.87 | 97 | 1010.2 |
| 20260509210725 | 18 | 32 | 0.0 | 3.2 | 0.94 | 6.60 | 5.84 | 97 | 1010.1 |
| 20260509210225 | 18 | 35 | 0.0 | 3.2 | 0.94 | 6.58 | 5.82 | 97 | 1010.3 |
| 20260509205958 | 18 | 19 | 0.0 | 1.6 | 0.91 | 6.58 | 5.79 | 97 | 1010.4 |
| 20260509205223 | 18 | 19 | 0.0 | 1.6 | 0.91 | 6.58 | 5.77 | 97 | 1010.5 |
| 20260509204720 | 18 | 19 | 0.0 | 1.6 | 0.91 | 6.58 | 5.74 | 97 | 1010.5 |
| 20260509204212 | 18 | 19 | 0.0 | 1.6 | 0.89 | 6.55 | 5.69 | 97 | 1010.5 |
| 20260509203713 | 18 | 19 | 0.0 | 3.2 | 0.86 | 6.53 | 5.66 | 97 | 1010.7 |
| 20260509203437 | 18 | 19 | 0.0 | 3.2 | 0.84 | 6.50 | 5.61 | 97 | 1010.9 |
| 20260509202707 | 19 | 83 | 0.0 | 1.6 | 0.74 | 6.38 | 5.49 | 97 | 1010.8 |
| 20260509202434 | 19 | 83 | 0.0 | 1.6 | 0.66 | 6.25 | 5.33 | 97 | 1010.8 |
| 20260509201657 | 19 | 83 | 0.0 | 0.0 | 0.58 | 6.15 | 5.21 | 97 | 1010.9 |
| 20260509201147 | 19 | 83 | 0.0 | 3.2 | 0.46 | 5.99 | 5.08 | 97 | 1010.8 |
| 20260509200639 | 19 | 83 | 0.0 | 6.4 | 0.30 | 5.84 | 4.90 | 97 | 1010.8 |
| 20260509200138 | 19 | 84 | 0.0 | 6.4 | 0.33 | 5.87 | 4.88 | 97 | 1010.2 |
| 20260509195637 | 19 | 55 | 0.0 | 0.0 | 0.43 | 5.89 | 4.88 | 97 | 1010.2 |
| 20260509195114 | 19 | 55 | 0.0 | 0.0 | 0.46 | 5.89 | 4.85 | 97 | 1010.4 |
| 20260509194604 | 19 | 47 | 0.0 | 3.2 | 0.69 | 5.87 | 4.83 | 97 | 1010.3 |
| 20260509194104 | 19 | 47 | 0.0 | 3.2 | 0.69 | 5.84 | 4.80 | 97 | 1010.2 |
| 20260509193603 | 19 | 49 | 1.6 | 3.2 | 0.69 | 5.84 | 4.78 | 97 | 1010.4 |
| 20260509193105 | 19 | 59 | 1.6 | 6.4 | 0.66 | 5.82 | 4.75 | 97 | 1010.5 |
| 20260509192602 | 19 | 52 | 1.6 | 6.4 | 0.64 | 5.79 | 4.70 | 97 | 1010.7 |
| 20260509192330 | 19 | 57 | 0.0 | 4.8 | 0.58 | 5.74 | 4.65 | 97 | 1010.7 |
| 20260509191557 | 19 | 29 | 0.0 | 4.8 | 0.56 | 5.74 | 4.62 | 97 | 1010.9 |
| 20260509191059 | 19 | 63 | 0.0 | 4.8 | 0.53 | 5.77 | 4.60 | 97 | 1010.9 |
| 20260509190550 | 19 | 221 | 0.0 | 3.2 | 0.51 | 5.84 | 4.57 | 97 | 1010.8 |
| 20260509190051 | 19 | 236 | 1.6 | 6.4 | 0.48 | 5.94 | 4.55 | 97 | 1011.2 |
| 20260509185548 | 19 | 336 | 3.2 | 6.4 | 0.38 | 5.84 | 4.45 | 97 | 1011.2 |
| 20260509185047 | 19 | 278 | 1.6 | 6.4 | 0.33 | 5.79 | 4.42 | 97 | 1010.9 |
| 20260509184547 | 19 | 107 | 1.6 | 4.8 | 0.08 | 5.56 | 4.14 | 97 | 1011.2 |
| 20260509184318 | 19 | 278 | 1.6 | 4.8 | 0.05 | 5.54 | 4.11 | 97 | 1011.8 |
| 20260509183812 | 19 | 93 | 0.0 | 3.2 | 0.03 | 5.54 | 4.09 | 97 | 1011.1 |
| 20260509183310 | 19 | 94 | 0.0 | 1.6 | 0.03 | 5.66 | 4.09 | 97 | 1011.2 |
| 20260509182541 | 19 | 94 | 0.0 | 3.2 | 0.00 | 5.69 | 4.06 | 97 | 1010.9 |
| 20260509182040 | 19 | 94 | 0.0 | 3.2 | 0.00 | 6.20 | 4.06 | 97 | 1011.1 |
| 20260509182036 | 19 | 94 | 0.0 | 3.2 | 0.00 | 5.89 | 4.06 | 97 | 1011.0 |
| 20260509181033 | 19 | 94 | 0.0 | 1.6 | 0.00 | 6.60 | 4.06 | 97 | 1011.3 |
| 20260509180526 | 19 | 94 | 0.0 | 1.6 | 0.00 | 7.29 | 4.06 | 97 | 1011.2 |
| 20260509180021 | 19 | 94 | 0.0 | 1.6 | 0.00 | 8.26 | 4.06 | 97 | 1011.1 |
| 20260509175522 | 19 | 94 | 0.0 | 1.6 | 0.00 | 8.74 | 4.06 | 97 | 1010.7 |
| 20260509175023 | 19 | 94 | 0.0 | 1.6 | 0.00 | 8.97 | 4.06 | 97 | 1010.8 |
| 20260509174502 | 19 | 94 | 0.0 | 3.2 | 0.00 | 9.22 | 4.06 | 97 | 1010.7 |
| 20260509174001 | 19 | 94 | 1.6 | 11.3 | 0.00 | 9.47 | 4.06 | 97 | 1010.6 |
| 20260509173458 | 19 | 94 | 1.6 | 11.3 | 0.00 | 9.86 | 4.06 | 97 | 1010.7 |
| 20260509172958 | 19 | 132 | 1.6 | 3.2 | 0.00 | 10.19 | 4.06 | 97 | 1010.5 |
| 20260509172724 | 19 | 136 | 1.6 | 3.2 | 0.00 | 10.74 | 4.06 | 97 | 1010.7 |
| 20260509171954 | 19 | 105 | 1.6 | 6.4 | 0.00 | 10.97 | 4.06 | 97 | 1010.6 |
| 20260509171949 | 19 | 107 | 1.6 | 6.4 | 0.00 | 11.00 | 4.06 | 97 | 1010.7 |
| 20260509170943 | 19 | 86 | 0.0 | 4.8 | 0.00 | 11.07 | 4.06 | 97 | 1010.6 |
| 20260509170435 | 19 | 112 | 0.0 | 0.0 | 0.00 | 11.28 | 4.06 | 97 | 1010.8 |
| 20260509165928 | 19 | 113 | 0.0 | 0.0 | 0.00 | 11.89 | 4.06 | 97 | 1010.9 |
| 20260509165426 | 18 | 113 | 0.0 | 0.0 | 0.00 | 13.41 | 4.06 | 97 | 1011.0 |
| 20260509164927 | 18 | 113 | 0.0 | 4.8 | 0.00 | 14.35 | 4.06 | 97 | 1011.1 |
| 20260509164425 | 18 | 96 | 1.6 | 6.4 | 0.00 | 15.37 | 4.06 | 97 | 1011.0 |
| 20260509163921 | 18 | 63 | 1.6 | 6.4 | 0.00 | 15.65 | 4.06 | 97 | 1010.9 |
| 20260509163414 | 18 | 88 | 1.6 | 4.8 | 0.00 | 15.65 | 4.06 | 97 | 1011.1 |
| 20260509163140 | 18 | 75 | 0.0 | 3.2 | 0.00 | 15.65 | 4.06 | 97 | 1011.2 |
| 20260509162409 | 18 | 75 | 0.0 | 3.2 | 0.00 | 15.65 | 4.06 | 97 | 1011.3 |
| 20260509161908 | 18 | 75 | 0.0 | 1.6 | 0.00 | 15.65 | 4.06 | 97 | 1011.5 |
| 20260509161410 | 18 | 75 | 0.0 | 4.8 | 0.00 | 15.65 | 4.06 | 97 | 1011.4 |
| 20260509160904 | 18 | 75 | 0.0 | 4.8 | 0.00 | 15.65 | 4.06 | 97 | 1011.1 |
| 20260509160352 | 18 | 38 | 0.0 | 1.6 | 0.00 | 15.65 | 4.06 | 97 | 1011.1 |
| 20260509155853 | 18 | 38 | 0.0 | 3.2 | 0.03 | 15.65 | 4.06 | 97 | 1011.0 |
| 20260509155331 | 18 | 38 | 0.0 | 3.2 | 0.03 | 15.65 | 4.06 | 97 | 1011.0 |
| 20260509154821 | 18 | 37 | 0.0 | 1.6 | 0.03 | 15.65 | 4.06 | 97 | 1011.3 |
| 20260509154550 | 18 | 37 | 0.0 | 1.6 | 0.03 | 15.65 | 4.06 | 97 | 1011.6 |
| 20260509153821 | 18 | 37 | 0.0 | 3.2 | 0.03 | 15.65 | 4.06 | 97 | 1011.7 |
| 20260509153312 | 18 | 37 | 0.0 | 3.2 | 0.03 | 15.65 | 4.06 | 97 | 1011.4 |
| 20260509152804 | 18 | 30 | 0.0 | 0.0 | 0.03 | 15.65 | 4.06 | 97 | 1011.2 |
| 20260509152257 | 18 | 30 | 0.0 | 0.0 | 0.03 | 15.65 | 4.06 | 97 | 1011.4 |
| 20260509151740 | 18 | 30 | 0.0 | 0.0 | 0.03 | 15.65 | 4.06 | 97 | 1011.2 |
| 20260509151507 | 18 | 30 | 0.0 | 4.8 | 0.03 | 15.65 | 4.06 | 97 | 1011.0 |
| 20260509150712 | 18 | 30 | 0.0 | 4.8 | 0.03 | 15.65 | 4.06 | 97 | 1011.1 |
| 20260509150201 | 18 | 107 | 0.0 | 3.2 | 0.00 | 15.62 | 4.04 | 97 | 1011.2 |
| 20260509145931 | 18 | 108 | 0.0 | 1.6 | 0.00 | 15.62 | 4.04 | 97 | 1011.2 |
| 20260509145157 | 18 | 108 | 0.0 | 1.6 | 0.00 | 15.62 | 4.04 | 97 | 1011.0 |
| 20260509144635 | 18 | 80 | 0.0 | 1.6 | 0.03 | 15.62 | 4.04 | 97 | 1011.0 |
| 20260509144131 | 18 | 81 | 0.0 | 1.6 | 0.05 | 15.62 | 4.04 | 97 | 1010.8 |
| 20260509143627 | 18 | 79 | 0.0 | 4.8 | 0.15 | 15.62 | 4.04 | 97 | 1010.7 |
| 20260509143356 | 18 | 79 | 0.0 | 4.8 | 0.28 | 15.62 | 4.04 | 97 | 1010.6 |
| 20260509142623 | 18 | 76 | 0.0 | 0.0 | 0.33 | 15.62 | 4.04 | 97 | 1010.3 |
| 20260509142120 | 18 | 76 | 0.0 | 0.0 | 0.43 | 15.62 | 4.04 | 97 | 1010.4 |
| 20260509141612 | 18 | 76 | 0.0 | 0.0 | 0.48 | 15.62 | 4.04 | 97 | 1010.5 |
| 20260509141104 | 18 | 88 | 0.0 | 0.0 | 0.58 | 15.62 | 4.04 | 97 | 1010.7 |
| 20260509140558 | 18 | 88 | 0.0 | 0.0 | 0.71 | 15.62 | 4.04 | 97 | 1010.8 |
| 20260509140057 | 18 | 88 | 0.0 | 0.0 | 0.76 | 15.62 | 4.04 | 97 | 1010.6 |
| 20260509135557 | 18 | 88 | 0.0 | 0.0 | 0.94 | 15.62 | 4.04 | 97 | 1010.4 |
| 20260509135056 | 18 | 100 | 0.0 | 0.0 | 0.99 | 15.60 | 4.01 | 97 | 1010.4 |
| 20260509134553 | 18 | 74 | 0.0 | 1.6 | 0.99 | 15.60 | 4.01 | 97 | 1010.4 |
| 20260509134043 | 18 | 74 | 0.0 | 3.2 | 0.99 | 15.57 | 3.99 | 97 | 1010.4 |
| 20260509133544 | 18 | 74 | 0.0 | 3.2 | 0.94 | 15.47 | 3.89 | 97 | 1010.7 |
| 20260509133041 | 18 | 67 | 0.0 | 1.6 | 1.07 | 15.34 | 3.76 | 97 | 1010.6 |
| 20260509132542 | 18 | 67 | 0.0 | 1.6 | 1.24 | 15.29 | 3.71 | 97 | 1010.7 |
| 20260509132037 | 18 | 67 | 0.0 | 3.2 | 1.55 | 15.19 | 3.61 | 97 | 1010.8 |
| 20260509131538 | 18 | 67 | 1.6 | 3.2 | 1.75 | 15.14 | 3.56 | 97 | 1010.8 |
| 20260509131037 | 18 | 67 | 0.0 | 3.2 | 1.91 | 15.04 | 3.45 | 97 | 1010.5 |
| 20260509130537 | 18 | 355 | 0.0 | 3.2 | 2.08 | 14.91 | 3.33 | 97 | 1011.1 |
| 20260509130033 | 18 | 355 | 1.6 | 4.8 | 2.31 | 14.86 | 3.28 | 97 | 1011.0 |
| 20260509125530 | 18 | 311 | 1.6 | 4.8 | 2.39 | 14.63 | 3.07 | 97 | 1010.7 |
| 20260509125256 | 18 | 87 | 1.6 | 6.4 | 2.69 | 14.61 | 3.02 | 97 | 1010.8 |
| 20260509124524 | 18 | 107 | 1.6 | 6.4 | 2.92 | 14.61 | 3.02 | 97 | 1010.4 |
| 20260509124020 | 18 | 99 | 1.6 | 8.0 | 3.00 | 14.58 | 3.00 | 97 | 1010.3 |
| 20260509123520 | 18 | 122 | 1.6 | 8.0 | 2.95 | 14.53 | 2.97 | 97 | 1010.2 |
| 20260509123011 | 18 | 77 | 1.6 | 6.4 | 2.64 | 14.22 | 2.69 | 96 | 1010.4 |
| 20260509122510 | 18 | 77 | 1.6 | 6.4 | 2.36 | 13.94 | 2.41 | 97 | 1010.6 |
| 20260509122006 | 18 | 160 | 0.0 | 3.2 | 2.06 | 13.64 | 2.06 | 97 | 1011.1 |
| 20260509121456 | 18 | 161 | 1.6 | 6.4 | 1.75 | 13.34 | 1.80 | 97 | 1010.9 |
| 20260509120944 | 18 | 136 | 1.6 | 6.4 | 1.55 | 13.13 | 1.55 | 96 | 1010.7 |
| 20260509120438 | 18 | 107 | 3.2 | 14.5 | 1.19 | 12.78 | 1.22 | 96 | 1010.7 |
| 20260509115936 | 18 | 55 | 4.8 | 16.1 | 0.94 | 12.52 | 0.97 | 97 | 1011.0 |
| 20260509115436 | 18 | 220 | 4.8 | 19.3 | 0.58 | 12.17 | 0.61 | 97 | 1010.7 |
| 20260509114935 | 19 | 355 | 4.8 | 22.5 | 0.33 | 11.91 | 0.33 | 97 | 1010.9 |
| 20260509114435 | 20 | 194 | 3.2 | 22.5 | 0.08 | 11.66 | 0.10 | 97 | 1010.6 |
| 20260509113936 | 21 | 266 | 0.0 | 6.4 | 0.00 | 11.58 | 0.00 | 97 | 1010.2 |
| 20260509113435 | 21 | 71 | 0.0 | 1.6 | 0.00 | 11.58 | 0.00 | 98 | 1009.5 |
| 20260509112933 | 21 | 71 | 0.0 | 1.6 | 0.00 | 11.58 | 0.00 | 98 | 1009.3 |
| 20260509112435 | 20 | 71 | 0.0 | 1.6 | 0.00 | 11.58 | 0.00 | 98 | 1009.1 |
| 20260509111934 | 20 | 71 | 0.0 | 1.6 | 0.00 | 11.58 | 0.00 | 97 | 1008.9 |
| 20260509111420 | 20 | 71 | 0.0 | 0.0 | 0.00 | 11.58 | 0.00 | 97 | 1008.6 |
| 20260509110843 | 20 | 71 | 0.0 | 0.0 | 0.00 | 11.58 | 0.00 | 97 | 1008.5 |
| 20260509110342 | 20 | 71 | 0.0 | 1.6 | 0.00 | 11.58 | 0.00 | 97 | 1008.3 |
| 20260509105838 | 20 | 71 | 0.0 | 1.6 | 0.00 | 11.58 | 0.00 | 97 | 1008.2 |
| 20260509105337 | 20 | 71 | 0.0 | 0.0 | 0.00 | 11.58 | 0.00 | 97 | 1007.9 |
| 20260509104838 | 20 | 71 | 0.0 | 1.6 | 0.00 | 11.58 | 0.00 | 97 | 1007.8 |
| 20260509104339 | 20 | 71 | 0.0 | 1.6 | 0.00 | 11.58 | 0.00 | 97 | 1007.7 |